Time,TemperatureF,DewpointF,PressureIn,WindDirection,WindDirectionDegrees,WindSpeedMPH,WindSpeedGustMPH,Humidity,HourlyPrecipIn,Conditions,Clouds,dailyrainin,SoftwareType,DateUTC
2017-05-27 00:02:00,40.9,30.4,30.08,SSE,159,0.0,5.0,66,0.00,,---,0.01,VWS V15.00,2017-05-27 08:02:00,
2017-05-27 00:07:00,40.9,30.4,30.08,SSE,159,0.0,0.0,66,0.00,,---,0.00,VWS V15.00,2017-05-27 08:07:00,
2017-05-27 00:12:00,40.8,30.3,30.08,SSE,153,0.0,4.0,66,0.00,,---,0.00,VWS V15.00,2017-05-27 08:12:00,
2017-05-27 00:17:00,40.8,30.3,30.08,SSE,152,1.0,4.0,66,0.00,,---,0.00,VWS V15.00,2017-05-27 08:17:00,
2017-05-27 00:22:00,40.8,30.3,30.09,ENE,63,0.0,5.0,66,0.00,,---,0.00,VWS V15.00,2017-05-27 08:22:00,
2017-05-27 00:27:00,40.6,30.5,30.09,ENE,62,0.0,5.0,67,0.00,,---,0.00,VWS V15.00,2017-05-27 08:27:00,
2017-05-27 00:32:00,40.5,30.8,30.09,North,10,3.0,5.0,68,0.00,,---,0.00,VWS V15.00,2017-05-27 08:32:00,
2017-05-27 00:37:00,40.3,31.0,30.09,NNE,19,1.0,3.0,69,0.00,,---,0.00,VWS V15.00,2017-05-27 08:37:00,
2017-05-27 00:42:00,40.2,30.9,30.09,NNE,23,5.0,5.0,69,0.00,,---,0.00,VWS V15.00,2017-05-27 08:42:00,
2017-05-27 00:47:00,40.1,31.1,30.09,NNE,29,0.0,5.0,70,0.00,,---,0.00,VWS V15.00,2017-05-27 08:47:00,
2017-05-27 00:52:00,39.9,30.9,30.10,NNE,29,0.0,5.0,70,0.00,,---,0.00,VWS V15.00,2017-05-27 08:52:00,
2017-05-27 00:57:00,39.9,30.9,30.10,NNE,29,0.0,5.0,70,0.00,,---,0.00,VWS V15.00,2017-05-27 08:57:00,
2017-05-27 01:02:00,39.8,31.2,30.10,NE,41,4.0,5.0,71,0.00,,---,0.00,VWS V15.00,2017-05-27 09:02:00,
2017-05-27 01:07:00,39.6,31.0,30.10,NNE,16,0.0,6.0,71,0.00,,---,0.00,VWS V15.00,2017-05-27 09:07:00,
2017-05-27 01:12:00,39.6,31.0,30.10,NNE,15,0.0,6.0,71,0.00,,---,0.00,VWS V15.00,2017-05-27 09:12:00,
2017-05-27 01:17:00,39.5,31.2,30.10,NE,52,1.0,6.0,72,0.00,,---,0.00,VWS V15.00,2017-05-27 09:17:00,
2017-05-27 01:22:00,39.5,31.2,30.10,NNE,28,0.0,6.0,72,0.00,,---,0.00,VWS V15.00,2017-05-27 09:22:00,
2017-05-27 01:27:00,39.5,31.2,30.10,NNE,28,0.0,6.0,72,0.00,,---,0.00,VWS V15.00,2017-05-27 09:27:00,
2017-05-27 01:32:00,39.3,30.7,30.10,NNE,29,0.0,6.0,71,0.00,,---,0.00,VWS V15.00,2017-05-27 09:32:00,
2017-05-27 01:37:00,39.3,30.7,30.10,NE,54,0.0,2.0,71,0.00,,---,0.00,VWS V15.00,2017-05-27 09:37:00,
2017-05-27 01:42:00,39.5,30.9,30.10,NE,55,0.0,3.0,71,0.00,,---,0.00,VWS V15.00,2017-05-27 09:42:00,
2017-05-27 01:47:00,39.5,31.2,30.10,NE,53,2.0,3.0,72,0.00,,---,0.00,VWS V15.00,2017-05-27 09:47:00,
2017-05-27 01:52:00,39.5,30.9,30.10,NE,49,0.0,4.0,71,0.00,,---,0.00,VWS V15.00,2017-05-27 09:52:00,
2017-05-27 01:57:00,39.3,31.0,30.10,NE,48,0.0,4.0,72,0.00,,---,0.00,VWS V15.00,2017-05-27 09:57:00,
2017-05-27 02:02:00,39.3,31.0,30.10,NE,53,0.0,4.0,72,0.00,,---,0.00,VWS V15.00,2017-05-27 10:02:00,
2017-05-27 02:07:00,39.2,31.0,30.10,NE,39,0.0,4.0,72,0.00,,---,0.00,VWS V15.00,2017-05-27 10:07:00,
2017-05-27 02:12:00,39.2,31.0,30.10,NE,39,0.0,4.0,72,0.00,,---,0.00,VWS V15.00,2017-05-27 10:12:00,
2017-05-27 02:17:00,39.2,31.0,30.10,ENE,61,3.0,6.0,72,0.00,,---,0.00,VWS V15.00,2017-05-27 10:17:00,
2017-05-27 02:22:00,39.3,31.0,30.10,ENE,61,0.0,6.0,72,0.00,,---,0.00,VWS V15.00,2017-05-27 10:22:00,
2017-05-27 02:27:00,39.3,31.0,30.10,ENE,58,0.0,6.0,72,0.00,,---,0.00,VWS V15.00,2017-05-27 10:27:00,
2017-05-27 02:32:00,39.3,31.0,30.10,ENE,57,0.0,6.0,72,0.00,,---,0.00,VWS V15.00,2017-05-27 10:32:00,
2017-05-27 02:37:00,39.2,30.6,30.10,ENE,57,0.0,1.0,71,0.00,,---,0.00,VWS V15.00,2017-05-27 10:37:00,
2017-05-27 02:42:00,39.2,30.6,30.10,NE,49,1.0,4.0,71,0.00,,---,0.00,VWS V15.00,2017-05-27 10:42:00,
2017-05-27 02:47:00,39.3,30.7,30.10,NE,47,0.0,4.0,71,0.00,,---,0.00,VWS V15.00,2017-05-27 10:47:00,
2017-05-27 02:52:00,39.3,30.7,30.10,NNE,20,0.0,4.0,71,0.00,,---,0.00,VWS V15.00,2017-05-27 10:52:00,
2017-05-27 02:57:00,39.3,30.7,30.10,NNE,20,0.0,4.0,71,0.00,,---,0.00,VWS V15.00,2017-05-27 10:57:00,
2017-05-27 03:02:00,39.3,30.7,30.10,NNE,20,0.0,4.0,71,0.00,,---,0.00,VWS V15.00,2017-05-27 11:02:00,
2017-05-27 03:07:00,39.2,30.6,30.10,NNE,21,0.0,0.0,71,0.00,,---,0.00,VWS V15.00,2017-05-27 11:07:00,
2017-05-27 03:12:00,39.2,31.0,30.10,NNE,26,0.0,0.0,72,0.00,,---,0.00,VWS V15.00,2017-05-27 11:12:00,
2017-05-27 03:17:00,39.1,30.9,30.10,NNE,28,0.0,3.0,72,0.00,,---,0.00,VWS V15.00,2017-05-27 11:17:00,
2017-05-27 03:22:00,39.1,30.9,30.10,NNE,27,0.0,5.0,72,0.00,,---,0.00,VWS V15.00,2017-05-27 11:22:00,
2017-05-27 03:27:00,38.9,31.0,30.10,NNE,20,3.0,7.0,73,0.00,,---,0.00,VWS V15.00,2017-05-27 11:27:00,
2017-05-27 03:32:00,38.9,31.0,30.10,NNE,21,0.0,7.0,73,0.00,,---,0.00,VWS V15.00,2017-05-27 11:32:00,
2017-05-27 03:37:00,38.8,30.9,30.10,NNE,23,0.0,3.0,73,0.00,,---,0.00,VWS V15.00,2017-05-27 11:37:00,
2017-05-27 03:42:00,38.8,30.9,30.10,NE,34,3.0,5.0,73,0.00,,---,0.00,VWS V15.00,2017-05-27 11:42:00,
2017-05-27 03:44:00,38.8,30.9,30.10,NE,34,0.0,5.0,73,0.00,,---,0.00,VWS V15.00,2017-05-27 11:44:00,
2017-05-27 03:49:00,38.8,31.2,30.10,ENE,61,0.0,5.0,74,0.00,,---,0.00,VWS V15.00,2017-05-27 11:49:00,
2017-05-27 03:54:00,38.6,31.0,30.10,ENE,74,5.0,8.0,74,0.00,,---,0.00,VWS V15.00,2017-05-27 11:54:00,
2017-05-27 03:59:00,38.6,31.0,30.10,ENE,59,0.0,8.0,74,0.00,,---,0.00,VWS V15.00,2017-05-27 11:59:00,
2017-05-27 04:02:00,38.6,31.4,30.10,ENE,59,0.0,8.0,75,0.00,,---,0.00,VWS V15.00,2017-05-27 12:02:00,
2017-05-27 04:07:00,38.5,31.3,30.10,East,101,0.0,0.0,75,0.00,,---,0.00,VWS V15.00,2017-05-27 12:07:00,
2017-05-27 04:12:00,38.5,31.3,30.10,East,101,0.0,1.0,75,0.00,,---,0.00,VWS V15.00,2017-05-27 12:12:00,
2017-05-27 04:13:00,38.3,31.1,30.10,East,101,0.0,1.0,75,0.00,,---,0.00,VWS V15.00,2017-05-27 12:13:00,
2017-05-27 04:18:00,38.3,31.4,30.10,East,101,0.0,4.0,76,0.00,,---,0.00,VWS V15.00,2017-05-27 12:18:00,
2017-05-27 04:23:00,38.2,31.3,30.10,ENE,64,0.0,7.0,76,0.00,,---,0.00,VWS V15.00,2017-05-27 12:23:00,
2017-05-27 04:28:00,38.0,31.1,30.10,ENE,61,0.0,7.0,76,0.00,,---,0.00,VWS V15.00,2017-05-27 12:28:00,
2017-05-27 04:33:00,38.0,31.1,30.10,ENE,64,0.0,8.0,76,0.00,,---,0.00,VWS V15.00,2017-05-27 12:33:00,
2017-05-27 04:38:00,38.0,31.4,30.10,ENE,74,1.0,4.0,77,0.00,,---,0.00,VWS V15.00,2017-05-27 12:38:00,
2017-05-27 04:43:00,37.9,31.4,30.10,ENE,77,3.0,6.0,77,0.00,,---,0.00,VWS V15.00,2017-05-27 12:43:00,
2017-05-27 04:48:00,37.9,31.4,30.10,East,81,0.0,6.0,77,0.00,,---,0.00,VWS V15.00,2017-05-27 12:48:00,
2017-05-27 04:53:00,37.9,31.4,30.10,NNE,24,6.0,6.0,77,0.00,,---,0.00,VWS V15.00,2017-05-27 12:53:00,
2017-05-27 04:58:00,37.9,31.4,30.10,NNE,24,0.0,6.0,77,0.00,,---,0.00,VWS V15.00,2017-05-27 12:58:00,
2017-05-27 05:03:00,37.9,31.0,30.10,NNE,27,0.0,6.0,76,0.00,,---,0.00,VWS V15.00,2017-05-27 13:03:00,
2017-05-27 05:08:00,37.9,31.4,30.10,NNE,30,0.0,1.0,77,0.00,,---,0.00,VWS V15.00,2017-05-27 13:08:00,
2017-05-27 05:13:00,37.9,31.4,30.10,East,80,0.0,6.0,77,0.00,,---,0.00,VWS V15.00,2017-05-27 13:13:00,
2017-05-27 05:18:00,37.9,31.0,30.10,ENE,61,1.0,6.0,76,0.00,,---,0.00,VWS V15.00,2017-05-27 13:18:00,
2017-05-27 05:23:00,38.0,31.1,30.10,NE,35,3.0,6.0,76,0.00,,---,0.00,VWS V15.00,2017-05-27 13:23:00,
2017-05-27 05:28:00,38.0,31.1,30.10,NE,42,0.0,6.0,76,0.00,,---,0.00,VWS V15.00,2017-05-27 13:28:00,
2017-05-27 05:33:00,38.0,30.8,30.10,NE,44,2.0,7.0,75,0.00,,---,0.00,VWS V15.00,2017-05-27 13:33:00,
2017-05-27 05:38:00,38.2,31.0,30.09,NE,47,4.0,4.0,75,0.00,,---,0.00,VWS V15.00,2017-05-27 13:38:00,
2017-05-27 05:43:00,38.2,31.0,30.09,NE,55,6.0,7.0,75,0.00,,---,0.00,VWS V15.00,2017-05-27 13:43:00,
2017-05-27 05:48:00,38.3,31.1,30.09,NE,55,1.0,7.0,75,0.00,,---,0.00,VWS V15.00,2017-05-27 13:48:00,
2017-05-27 05:53:00,38.3,30.8,30.09,ENE,69,3.0,8.0,74,0.00,,---,0.00,VWS V15.00,2017-05-27 13:53:00,
2017-05-27 05:58:00,38.5,31.0,30.09,ENE,63,2.0,10.0,74,0.00,,---,0.00,VWS V15.00,2017-05-27 13:58:00,
2017-05-27 06:03:00,38.5,31.0,30.09,NE,55,0.0,11.0,74,0.00,,---,0.00,VWS V15.00,2017-05-27 14:03:00,
2017-05-27 06:08:00,38.5,31.0,30.09,ENE,71,5.0,7.0,74,0.00,,---,0.00,VWS V15.00,2017-05-27 14:08:00,
2017-05-27 06:13:00,38.5,31.0,30.09,ENE,65,6.0,7.0,74,0.00,,---,0.00,VWS V15.00,2017-05-27 14:13:00,
2017-05-27 06:18:00,38.5,30.6,30.09,East,89,6.0,7.0,73,0.00,,---,0.00,VWS V15.00,2017-05-27 14:18:00,
2017-05-27 06:23:00,38.6,30.4,30.09,ENE,63,6.0,8.0,72,0.00,,---,0.00,VWS V15.00,2017-05-27 14:23:00,
2017-05-27 06:28:00,38.8,30.6,30.09,ENE,61,0.0,8.0,72,0.00,,---,0.00,VWS V15.00,2017-05-27 14:28:00,
2017-05-27 06:33:00,38.8,30.6,30.09,ENE,63,0.0,8.0,72,0.00,,---,0.00,VWS V15.00,2017-05-27 14:33:00,
2017-05-27 06:38:00,38.8,30.6,30.10,ENE,62,3.0,5.0,72,0.00,,---,0.00,VWS V15.00,2017-05-27 14:38:00,
2017-05-27 06:43:00,38.8,30.6,30.10,NE,56,0.0,5.0,72,0.00,,---,0.00,VWS V15.00,2017-05-27 14:43:00,
2017-05-27 06:48:00,38.8,30.6,30.10,NNE,24,0.0,6.0,72,0.00,,---,0.00,VWS V15.00,2017-05-27 14:48:00,
2017-05-27 06:53:00,38.9,30.7,30.09,ESE,102,0.0,6.0,72,0.00,,---,0.00,VWS V15.00,2017-05-27 14:53:00,
2017-05-27 06:58:00,38.9,30.7,30.09,East,101,0.0,6.0,72,0.00,,---,0.00,VWS V15.00,2017-05-27 14:58:00,
2017-05-27 07:03:00,38.9,30.7,30.09,NE,51,0.0,6.0,72,0.00,,---,0.00,VWS V15.00,2017-05-27 15:03:00,
2017-05-27 07:08:00,38.9,30.0,30.09,East,80,1.0,5.0,70,0.00,,---,0.00,VWS V15.00,2017-05-27 15:08:00,
2017-05-27 07:13:00,39.2,29.9,30.09,ENE,58,1.0,10.0,69,0.00,,---,0.00,VWS V15.00,2017-05-27 15:13:00,
2017-05-27 07:14:00,39.2,29.9,30.09,ENE,62,3.0,10.0,69,0.00,,---,0.00,VWS V15.00,2017-05-27 15:14:00,
2017-05-27 07:19:00,39.5,30.2,30.09,ENE,66,2.0,10.0,69,0.00,,---,0.00,VWS V15.00,2017-05-27 15:19:00,
2017-05-27 07:24:00,39.6,30.3,30.09,ENE,63,0.0,10.0,69,0.00,,---,0.00,VWS V15.00,2017-05-27 15:24:00,